Location: Fontevrault
(47.1823°N, 0.0493°E)
Time: 15:35:42
(UTC+00:00)

Spot 2 Rocket - Pass Details

Date: 16 June 2021
Orbit: 757 x 772 km, 98.5° (Epoch: 04 August)

Event Time Altitude Azimuth Distance (km) Brightness Sun altitude
Exits shadow 21:17:53 11° 167° (SSE) 2,228 5.3 -10.5°
Maximum altitude 21:22:47 83° 255° (WSW) 776 3.6 -11.0°
Drops below altitude 10° 21:27:54 10° 344° (NNW) 2,314 7.2 -11.5°
Sets 21:30:13 0° 346° (NNW) 3,247 8.2 -11.7°
